User: anonymous   Login
Location: ??????
(55.6500°N, 37.8000°E)
Time: 11:10:15
(UTC+00:00)
Language:

CZ-2C R/B - Orbit

View from above orbital plane
View from above orbital plane
View from above satellite
View from above satellite

Ground track
Ground track

The orbit data is extracted from the following two-line orbital elements,

1 28480U 04046B   24171.82467017  .00000134  00000-0  65754-4 0  9995
2 28480  98.1626 115.8709 0139891 211.1161 148.1682 14.26385571 18978
Epoch (UTC): 19 June 2024 19:47:31
Eccentricity: 0.0139891
inclination: 98.1626°
perigee height: 703 km
apogee height: 904 km
right ascension of ascending node: 115.8709°
argument of perigee: 211.1161°
revolutions per day: 14.26385571
mean anomaly at epoch: 148.1682°
orbit number at epoch: 1897

The dashed part of the orbit path shows where the satellite is in the earth's shadow,  

DLR